Location: Newark
(35.5300°N, 14.3000°E)
Time: 05:03:12
(UTC+00:00)

Transit 4A - Pass Details

Date: 01 December 2019
Orbit: 871 x 973 km, 66.8° (Epoch: 20 January)

Event Time Altitude Azimuth Distance (km) Brightness Sun altitude
Exits shadow 03:47:31 64° 288° (WNW) 961 7.6 -25.1°
Maximum altitude 03:48:09 70° 246° (WSW) 923 7.6 -25.0°
Drops below altitude 10° 03:53:54 10° 164° (SSE) 2,510 10.5 -23.8°
Sets 03:56:23 0° 162° (SSE) 3,449 11.3 -23.3°
